| time (UTC) | temp F | wind direction | speed MPH | gust MPH | rain 1hr in | rain 24hr in | rain mn in | humidity % | barometer mb |
| 20260831103032 | 81 | 190 | 0.0 | 1.0 | 0.00 | 0.00 | 0.00 | 86 | 1014.1 |
| 20260831101505 | 81 | 188 | 1.0 | 3.0 | 0.00 | 0.00 | 0.00 | 86 | 1014.1 |
| 20260831100057 | 81 | 226 | 1.0 | 3.0 | 0.00 | 0.00 | 0.00 | 86 | 1014.3 |
| 20260831094524 | 81 | 228 | 0.0 | 3.0 | 0.00 | 0.00 | 0.00 | 86 | 1014.2 |
| 20260831093105 | 82 | 229 | 0.0 | 3.0 | 0.00 | 0.00 | 0.00 | 87 | 1014.1 |
| 20260831091542 | 82 | 219 | 1.0 | 4.0 | 0.00 | 0.00 | 0.00 | 87 | 1014.0 |
| 20260831090013 | 82 | 221 | 1.0 | 4.0 | 0.00 | 0.00 | 0.00 | 86 | 1014.0 |
| 20260831084555 | 82 | 207 | 1.0 | 5.0 | 0.00 | 0.00 | 0.00 | 86 | 1014.1 |
| 20260831083024 | 82 | 181 | 2.0 | 4.0 | 0.00 | 0.00 | 0.00 | 86 | 1014.2 |
| 20260831081609 | 82 | 196 | 2.0 | 4.0 | 0.00 | 0.00 | 0.00 | 86 | 1014.2 |
| 20260831080051 | 82 | 195 | 2.0 | 5.0 | 0.00 | 0.00 | 0.00 | 85 | 1014.4 |
| 20260831074512 | 83 | 193 | 2.0 | 6.0 | 0.00 | 0.00 | 0.00 | 85 | 1014.2 |
| 20260831073101 | 83 | 211 | 3.0 | 7.0 | 0.00 | 0.00 | 0.00 | 84 | 1014.3 |
| 20260831071523 | 83 | 173 | 3.0 | 7.0 | 0.00 | 0.00 | 0.00 | 84 | 1014.3 |
| 20260831070110 | 83 | 220 | 3.0 | 7.0 | 0.00 | 0.00 | 0.00 | 83 | 1014.3 |
| 20260831064532 | 83 | 198 | 1.0 | 5.0 | 0.00 | 0.00 | 0.00 | 83 | 1014.5 |
| 20260831063003 | 83 | 185 | 3.0 | 6.0 | 0.00 | 0.00 | 0.00 | 83 | 1014.5 |
| 20260831061556 | 83 | 198 | 3.0 | 9.0 | 0.00 | 0.00 | 0.00 | 82 | 1014.6 |
| 20260831060019 | 83 | 189 | 1.0 | 7.0 | 0.00 | 0.00 | 0.00 | 83 | 1014.5 |
| 20260831053031 | 83 | 172 | 3.0 | 8.0 | 0.00 | 0.00 | 0.00 | 83 | 1014.6 |
| 20260831051624 | 84 | 195 | 2.0 | 8.0 | 0.00 | 0.00 | 0.00 | 82 | 1014.5 |
| 20260831050043 | 84 | 181 | 4.0 | 8.0 | 0.00 | 0.00 | 0.00 | 82 | 1014.4 |
| 20260831044522 | 84 | 190 | 2.0 | 7.0 | 0.00 | 0.00 | 0.00 | 81 | 1014.3 |
| 20260831043108 | 84 | 162 | 0.0 | 8.0 | 0.00 | 0.00 | 0.00 | 81 | 1014.3 |
| 20260831041545 | 84 | 179 | 2.0 | 9.0 | 0.00 | 0.00 | 0.00 | 81 | 1014.1 |
| 20260831040014 | 84 | 152 | 5.0 | 12.0 | 0.00 | 0.00 | 0.00 | 80 | 1014.2 |
| 20260831034601 | 85 | 143 | 5.0 | 9.0 | 0.00 | 0.00 | 0.00 | 80 | 1014.1 |
| 20260831033034 | 85 | 184 | 2.0 | 8.0 | 0.00 | 0.00 | 0.00 | 80 | 1014.0 |
| 20260831031609 | 85 | 193 | 2.0 | 5.0 | 0.00 | 0.00 | 0.00 | 79 | 1013.9 |
| 20260831030047 | 85 | 197 | 5.0 | 9.0 | 0.00 | 0.00 | 0.00 | 78 | 1013.6 |
| 20260831024512 | 86 | 179 | 3.0 | 7.0 | 0.00 | 0.00 | 0.00 | 77 | 1013.4 |
| 20260831023054 | 86 | 159 | 7.0 | 13.0 | 0.00 | 0.00 | 0.00 | 76 | 1013.3 |
| 20260831021528 | 86 | 165 | 7.0 | 12.0 | 0.00 | 0.00 | 0.00 | 76 | 1013.2 |
| 20260831020110 | 87 | 173 | 4.0 | 11.0 | 0.00 | 0.00 | 0.00 | 75 | 1012.9 |
| 20260831014545 | 87 | 200 | 4.0 | 11.0 | 0.00 | 0.00 | 0.00 | 73 | 1012.8 |
| 20260831013015 | 88 | 167 | 6.0 | 13.0 | 0.00 | 0.00 | 0.00 | 71 | 1012.7 |
| 20260831011556 | 89 | 156 | 5.0 | 13.0 | 0.00 | 0.00 | 0.00 | 69 | 1012.7 |
| 20260831010030 | 89 | 156 | 6.0 | 11.0 | 0.00 | 0.00 | 0.00 | 66 | 1012.6 |
| 20260831004613 | 90 | 139 | 7.0 | 16.0 | 0.00 | 0.00 | 0.00 | 65 | 1012.6 |
| 20260831003046 | 91 | 182 | 6.0 | 17.0 | 0.00 | 0.00 | 0.00 | 63 | 1012.5 |
| 20260831001517 | 92 | 162 | 7.0 | 12.0 | 0.00 | 0.00 | 0.00 | 60 | 1012.4 |
| 20260831000100 | 92 | 163 | 7.0 | 17.0 | 0.00 | 0.00 | 0.00 | 59 | 1012.4 |
| 20260830234527 | 93 | 166 | 9.0 | 17.0 | 0.00 | 0.00 | 0.00 | 58 | 1012.3 |
| 20260830233108 | 94 | 148 | 7.0 | 15.0 | 0.00 | 0.00 | 0.00 | 57 | 1012.1 |
| 20260830231543 | 94 | 118 | 5.0 | 19.0 | 0.00 | 0.00 | 0.00 | 52 | 1012.2 |
| 20260830230021 | 95 | 96 | 9.0 | 15.0 | 0.00 | 0.00 | 0.00 | 51 | 1012.2 |
| 20260830224600 | 95 | 82 | 5.0 | 12.0 | 0.00 | 0.00 | 0.00 | 52 | 1012.2 |
| 20260830223038 | 95 | 148 | 6.0 | 14.0 | 0.00 | 0.00 | 0.00 | 53 | 1012.2 |
| 20260830221504 | 95 | 122 | 6.0 | 14.0 | 0.00 | 0.00 | 0.00 | 54 | 1012.1 |
| 20260830220044 | 95 | 105 | 4.0 | 12.0 | 0.00 | 0.00 | 0.00 | 53 | 1012.1 |
| 20260830214510 | 97 | 160 | 6.0 | 12.0 | 0.00 | 0.00 | 0.00 | 52 | 1012.2 |
| 20260830213058 | 97 | 93 | 4.0 | 12.0 | 0.00 | 0.00 | 0.00 | 51 | 1012.2 |
| 20260830211537 | 97 | 189 | 4.0 | 9.0 | 0.00 | 0.00 | 0.00 | 51 | 1012.4 |
| 20260830210005 | 96 | 163 | 2.0 | 11.0 | 0.00 | 0.00 | 0.00 | 51 | 1012.8 |
| 20260830204548 | 97 | 138 | 5.0 | 10.0 | 0.00 | 0.00 | 0.00 | 49 | 1012.9 |
| 20260830203029 | 97 | 146 | 5.0 | 9.0 | 0.00 | 0.00 | 0.00 | 51 | 1013.1 |
| 20260830201559 | 97 | 185 | 5.0 | 12.0 | 0.00 | 0.00 | 0.00 | 51 | 1013.3 |
| 20260830200027 | 96 | 219 | 2.0 | 6.0 | 0.00 | 0.00 | 0.00 | 51 | 1013.4 |
| 20260830194607 | 97 | 174 | 5.0 | 11.0 | 0.00 | 0.00 | 0.00 | 51 | 1013.8 |
| 20260830193026 | 96 | 46 | 1.0 | 8.0 | 0.00 | 0.00 | 0.00 | 49 | 1014.0 |
| 20260830191607 | 95 | 61 | 4.0 | 9.0 | 0.00 | 0.00 | 0.00 | 51 | 1014.3 |
| 20260830190035 | 94 | 55 | 1.0 | 9.0 | 0.00 | 0.00 | 0.00 | 56 | 1014.6 |
| 20260830184612 | 95 | 41 | 0.0 | 6.0 | 0.00 | 0.00 | 0.00 | 56 | 1014.9 |
| 20260830183037 | 95 | 39 | 3.0 | 6.0 | 0.00 | 0.00 | 0.00 | 56 | 1015.0 |
| 20260830181511 | 95 | 124 | 3.0 | 9.0 | 0.00 | 0.00 | 0.00 | 56 | 1015.2 |
| 20260830180050 | 93 | 166 | 1.0 | 8.0 | 0.00 | 0.00 | 0.00 | 58 | 1015.5 |
| 20260830174519 | 93 | 90 | 4.0 | 8.0 | 0.00 | 0.00 | 0.00 | 57 | 1015.8 |
| 20260830173111 | 93 | 54 | 2.0 | 7.0 | 0.00 | 0.00 | 0.00 | 60 | 1015.9 |
| 20260830171529 | 92 | 187 | 3.0 | 10.0 | 0.00 | 0.00 | 0.00 | 62 | 1016.2 |
| 20260830170002 | 91 | 261 | 1.0 | 6.0 | 0.00 | 0.00 | 0.00 | 64 | 1016.2 |
| 20260830164605 | 90 | 106 | 3.0 | 8.0 | 0.00 | 0.00 | 0.00 | 66 | 1016.3 |
| 20260830163019 | 90 | 98 | 4.0 | 8.0 | 0.00 | 0.00 | 0.00 | 67 | 1016.3 |
| 20260830161557 | 89 | 309 | 1.0 | 7.0 | 0.00 | 0.00 | 0.00 | 68 | 1016.3 |
| 20260830160026 | 90 | 288 | 2.0 | 5.0 | 0.00 | 0.00 | 0.00 | 67 | 1016.4 |
| 20260830154606 | 90 | 226 | 1.0 | 4.0 | 0.00 | 0.00 | 0.00 | 67 | 1016.4 |
| 20260830153031 | 87 | 165 | 1.0 | 5.0 | 0.00 | 0.00 | 0.00 | 71 | 1016.4 |
| 20260830151502 | 87 | 248 | 2.0 | 6.0 | 0.00 | 0.00 | 0.00 | 75 | 1016.4 |
| 20260830150041 | 87 | 217 | 3.0 | 6.0 | 0.00 | 0.00 | 0.00 | 75 | 1016.4 |
| 20260830144510 | 86 | 170 | 1.0 | 4.0 | 0.00 | 0.00 | 0.00 | 78 | 1016.4 |
| 20260830143058 | 86 | 154 | 3.0 | 5.0 | 0.00 | 0.00 | 0.00 | 78 | 1016.5 |
| 20260830141522 | 85 | 217 | 0.0 | 0.0 | 0.00 | 0.00 | 0.00 | 80 | 1016.5 |
| 20260830140104 | 85 | 191 | 0.0 | 0.0 | 0.00 | 0.00 | 0.00 | 81 | 1016.4 |
| 20260830134536 | 84 | 214 | 0.0 | 0.0 | 0.00 | 0.00 | 0.00 | 83 | 1016.3 |
| 20260830133008 | 83 | 215 | 0.0 | 0.0 | 0.00 | 0.00 | 0.00 | 85 | 1016.0 |
| 20260830131553 | 82 | 214 | 0.0 | 0.0 | 0.00 | 0.00 | 0.00 | 87 | 1015.8 |
| 20260830130019 | 81 | 214 | 0.0 | 0.0 | 0.00 | 0.00 | 0.00 | 87 | 1015.8 |
| 20260830124610 | 80 | 214 | 0.0 | 0.0 | 0.00 | 0.00 | 0.00 | 89 | 1015.7 |
| 20260830123025 | 80 | 214 | 0.0 | 0.0 | 0.00 | 0.00 | 0.00 | 89 | 1015.6 |
| 20260830121500 | 80 | 214 | 0.0 | 0.0 | 0.00 | 0.00 | 0.00 | 89 | 1015.4 |
| 20260830120047 | 80 | 214 | 0.0 | 1.0 | 0.00 | 0.00 | 0.00 | 89 | 1015.4 |
| 20260830114519 | 80 | 214 | 0.0 | 0.0 | 0.00 | 0.00 | 0.00 | 89 | 1015.4 |
| 20260830113105 | 80 | 214 | 0.0 | 0.0 | 0.00 | 0.00 | 0.00 | 89 | 1015.4 |
| 20260830111533 | 80 | 214 | 0.0 | 2.0 | 0.00 | 0.00 | 0.00 | 89 | 1015.3 |
| 20260830110005 | 80 | 214 | 0.0 | 2.0 | 0.00 | 0.00 | 0.00 | 89 | 1015.1 |
| 20260830104556 | 80 | 211 | 1.0 | 3.0 | 0.00 | 0.00 | 0.00 | 89 | 1015.0 |